Location: D�pe
(52.6057°N, 8.1808°E)
Time: 07:46:15
(UTC+00:00)

Cosmos 1697 Rocket - Pass Details

Date: 29 October 2020
Orbit: 831 x 845 km, 71.0° (Epoch: 01 December)

Event Time Altitude Azimuth Distance (km) Brightness Sun altitude
Rises 17:07:55 0° 171° (S) 3,366 5.8 -10.4°
Reaches altitude 10° 17:10:40 10° 160° (SSE) 2,438 5.0 -10.9°
Maximum altitude 17:15:15 27° 104° (ESE) 1,560 3.6 -11.5°
Enters shadow 17:19:39 11° 50° (NE) 2,385 4.5 -12.2°
